• Join FlightAware (Why Join?)
  • Login
  • US Flag 
06:51PM EST


 

Airport Tracker/Info


-or-


 

Live Flight TrackerFlight Track Log ✈ UCA4809 ✈ 28-Apr-2014 ✈ KPIT - KCLE

Flight Track Log - Related Links

Times and Time Zones

All times are in EDT time to prevent confusion due to time zone crossing. See the UCA4809 flight status page for this flight to view local times or setup timezone preferences in your user account.

Time Position Orientation Groundspeed Altitude Reporting Facility
EDT Latitude Longitude Course Direction KTS MPH feet Rate Location/Type
03:36PM 40.5689 -80.2200 287° West 175 201 4,300  Level Cleveland Center
03:37PM 40.6222 -80.2519 336° Northwest 184 212 6,000 1,452 Climbing Cleveland Center
03:38PM 40.6431 -80.3108 295° West 195 224 7,300 968 Climbing Cleveland Center
03:39PM 40.6497 -80.3817 277° West 194 223 8,000 339 Climbing Cleveland Center
03:40PM 40.5806 -80.6907 287° West  Level FlightAware Approximate
03:40PM 40.6567 -80.4683 276° West 226 260 8,000  Level Cleveland Center
03:41PM 40.5985 -80.7698 287° West  Level FlightAware Approximate
03:41PM 40.6656 -80.5592 277° West 242 278 8,000  Level Cleveland Center
03:42PM 40.6750 -80.6639 277° West 242 278 8,000  Level Cleveland Center
03:43PM 40.6819 -80.7525 276° West 245 282 8,000  Level Cleveland Center
03:44PM 40.6900 -80.8408 277° West 245 282 8,000  Level Cleveland Center
03:45PM 40.6992 -80.9261 278° West 240 276 8,000  Level Cleveland Center
03:46PM 40.7289 -81.0061 296° West 241 277 8,000  Level Cleveland Center
03:47PM 40.7550 -81.0944 291° West 241 277 8,000  Level Cleveland Center
03:48PM 40.7808 -81.1756 293° West 240 276 8,000  Level Cleveland Center
03:49PM 40.8075 -81.2569 293° West 240 276 8,000  Level Cleveland Center
03:50PM 40.8372 -81.3542 292° West 240 276 8,000  Level Cleveland Center
03:51PM 40.8631 -81.4367 293° West 241 277 8,000 -432 Level Cleveland Center
03:52PM 40.8906 -81.5239 293° West 251 289 7,100 -519 Descending Cleveland Center
03:53PM 40.9108 -81.5925 291° West 265 305 7,100  Level Cleveland Center
03:53PM 40.9183 -81.6144 294° West 260 299 7,100  Level Cleveland Center
03:55PM 40.9578 -81.6875 306° West 248 285 7,100  Level Cleveland Center
03:55PM 40.9947 -81.7306 319° Northwest 243 280 7,100 -97 Level Cleveland Center
03:56PM 41.0086 -81.7469 318° Northwest 245 282 7,000 -71 Descending Cleveland Center
03:57PM 41.0636 -81.8003 324° Northwest 243 280 7,000 48 Level Cleveland Center
03:58PM 41.1214 -81.8489 328° Northwest 243 280 7,100 -165 Climbing Cleveland Center
03:58PM 41.1619 -81.8992 317° Northwest 211 243 6,700 -581 Descending Cleveland Center
03:59PM 41.1744 -81.9125 321° Northwest 219 252 6,500 -984 Descending Cleveland Center
03:59PM 41.2106 -81.9628 314° West 248 285 5,700 -1,065 Descending Cleveland Center
04:00PM 41.2250 -81.9775 323° Northwest 246 283 5,400 -1,375 Descending Cleveland Center
04:00PM 41.2528 -82.0058 323° Northwest 254 292 4,600 -1,429 Descending Cleveland Center
04:01PM 41.2833 -82.0281 331° Northwest 246 283 3,900 -1,139 Descending Cleveland Center
04:02PM 41.3231 -81.9950 32° Northeast 212 244 3,100 -968 Descending Cleveland Center
04:02PM 41.3308 -81.9808 54° Northeast 226 260 2,900 -787 Descending Cleveland Center
04:03PM 41.3550 -81.9447 48° Northeast 164 189 2,300 -677 Descending Cleveland Center
04:03PM 41.3617 -81.9347 48° Northeast 186 214 2,200 -857 Descending Cleveland Center
04:03PM 41.3728 -81.9142 54° Northeast 119 137 1,700 -774 Descending Cleveland Center
04:04PM 41.3828 -81.8994 48° Northeast 140 161 1,400 -545 Descending Cleveland Center
04:04PM 41.3897 -81.8889 49° Northeast 98 113 1,200 -581 Descending Cleveland Center
04:05PM 41.4017 -81.8694 51° Northeast 117 135 800 -571 Descending Cleveland Center